Home   Weather   San Pedro Sula   Past weeks

Flag for Honduras Past Weather in San Pedro Sula, Honduras — Yesterday and Last 2 Weeks

Now
86 °F

Passing clouds.


Feels Like: 99 °F
Forecast: 75 / 87 °F
Wind: 2 mph from South

Location: La Mesa San Pedro Sula

Current Time: Dec 7, 2016 at 10:42:35 am

Latest Report: Dec 7, 2016 at 10:00 am


Visibility: N/A

Pressure: 29.98 "Hg

Humidity: 79%

Dew Point: 79 °F

Location of San Pedro SulaLocation

Past Weather in San Pedro Sula — Graph

°F

San Pedro Sula Temperature Yesterday

Maximum temperature yesterday: 91 °F (at 12:00 pm)
Minimum temperature yesterday: 73 °F (at 5:00 am)
Average temperature yesterday: 80 °F

High & Low Weather Summary for the Past Weeks

 TemperatureHumidityPressure
High93 °F (Nov 30, 2:00 pm)100% (Nov 22, 9:00 am)30.07 "Hg (Nov 22, 9:00 am)
Low68 °F (Nov 22, 11:00 pm)56% (Nov 30, 2:00 pm)29.68 "Hg (Nov 29, 3:00 pm)
Average78 °F93%29.91 "Hg
* Reported Nov 22 9:00 am — Dec 7 9:00 am, San Pedro Sula, Weather by CustomWeather, © 2016

Note: Actual official high and low records may vary slightly from our data, if they occured in-between our weather recording intervals... More about our weather records

Advertising

San Pedro Sula Weather History for the Previous 24 Hours

Scroll right to see more
 ConditionsComfort  
Time TempWeatherWind HumidityBarometerVisibility
9:00 am
Wed, Dec 7
81 °FPassing clouds.5 mph89%29.98 "HgN/A
8:00 am75 °FPassing clouds.6 mph94%29.98 "HgN/A
7:00 am73 °FScattered clouds.2 mph94%29.95 "HgN/A
6:00 am73 °FPassing clouds.No wind100%29.95 "HgN/A
3:00 am73 °FPassing clouds.3 mph100%29.89 "HgN/A
2:00 am75 °FPassing clouds.2 mph100%29.89 "HgN/A
1:00 am77 °FPassing clouds.No wind100%29.92 "HgN/A
12:00 am77 °FPassing clouds.3 mph100%29.92 "HgN/A
11:00 pm
Tue, Dec 6
79 °FPassing clouds.2 mph100%29.92 "HgN/A
10:00 pm79 °FPassing clouds.2 mph100%29.92 "HgN/A
9:00 pm81 °FPassing clouds.6 mph100%29.92 "HgN/A
8:00 pm81 °FPassing clouds.7 mph100%29.92 "HgN/A
7:00 pm82 °FPassing clouds.9 mph94%29.89 "HgN/A
6:00 pm82 °FPassing clouds.10 mph100%29.86 "HgN/A
4:00 pm90 °FPassing clouds.15 mph79%29.80 "HgN/A
12:00 pm91 °FPassing clouds.5 mph63%29.89 "HgN/A
11:00 am90 °FPassing clouds.6 mph67%29.89 "HgN/A
10:00 am88 °FPassing clouds.9 mph70%29.92 "HgN/A
Weather by CustomWeather, © 2016

See weather overviewHow to use our weather pages